Location: Heidgraben
(53.7081°N, 9.6576°E)
Time: 22:13:03
(UTC+00:00)

Cosmos 2333 Rocket - Pass Details

Date: 29 October 2020
Orbit: 841 x 861 km, 70.8° (Epoch: 28 November)

Event Time Altitude Azimuth Distance (km) Brightness Sun altitude
Exits shadow 02:15:02 14° 351° (N) 2,241 4.6 -35.3°
Maximum altitude 02:16:01 14° 3° (N) 2,207 4.6 -35.2°
Drops below altitude 10° 02:18:56 10° 34° (NE) 2,480 5.3 -34.8°
Sets 02:22:44 0° 59° (ENE) 3,411 6.4 -34.3°
